When you browse on this site, cookies collect data to enhance your experience and personalize the content and advertising you see.
Visit our Privacy Policy to learn more. By continuing to use the site, you agree to this use of cookies and data.
  • In United Kingdom
  • List of Countries
  • For 7 days
  • Water Temperature
  • Weather Map
  • Weather Widgets
  • user-avatar
    Login

    Hourly Weather Dalvarzin

    Today, 19 September, Thursday

    Time Temperature Precipitation Wind Pressure Humidity
    00:00 +24°C° 0 mm 1 mps 737 mmHg 20%
    01:00 +23°C° 0 mm 1 mps 736 mmHg 20%
    02:00 +23°C° 0 mm 1 mps 736 mmHg 20%
    03:00 +22°C° 0 mm 1 mps 737 mmHg 19%
    04:00 +22°C° 0 mm 1 mps 737 mmHg 19%
    05:00 +22°C° 0 mm 1 mps 737 mmHg 19%
    06:00 +24°C° 0 mm 2 mps 737 mmHg 18%
    07:00 +26°C° 0 mm 3 mps 737 mmHg 17%
    08:00 +28°C° 0 mm 3 mps 738 mmHg 16%
    09:00 +30°C° 0 mm 3 mps 738 mmHg 14%
    10:00 +34°C° 0 mm 3 mps 738 mmHg 12%
    11:00 +36°C° 0 mm 3 mps 738 mmHg 10%
    12:00 +37°C° 0 mm 3 mps 738 mmHg 9%
    13:00 +38°C° 0 mm 3 mps 737 mmHg 8%
    14:00 +39°C° 0 mm 2 mps 737 mmHg 8%
    15:00 +39°C° 0 mm 2 mps 737 mmHg 8%
    16:00 +39°C° 0 mm 2 mps 737 mmHg 8%
    17:00 +39°C° 0 mm 2 mps 737 mmHg 8%
    18:00 +35°C° 0 mm 2 mps 737 mmHg 10%
    19:00 +31°C° 0 mm 2 mps 737 mmHg 13%
    20:00 +27°C° 0 mm 2 mps 737 mmHg 15%
    21:00 +27°C° 0 mm 2 mps 737 mmHg 16%
    22:00 +26°C° 0 mm 2 mps 737 mmHg 16%
    23:00 +25°C° 0 mm 2 mps 737 mmHg 17%

    Tomorrow, 20 September, Friday

    Time Temperature Precipitation Wind Pressure Humidity
    00:00 +24°C° 0 mm 2 mps 736 mmHg 20%
    01:00 +23°C° 0 mm 2 mps 736 mmHg 23%
    02:00 +21°C° 0 mm 2 mps 736 mmHg 26%
    03:00 +21°C° 0 mm 1 mps 736 mmHg 28%
    04:00 +21°C° 0 mm 1 mps 736 mmHg 30%
    05:00 +20°C° 0 mm 1 mps 736 mmHg 32%
    06:00 +22°C° 0 mm 1 mps 736 mmHg 30%
    07:00 +23°C° 0 mm 1 mps 736 mmHg 28%
    08:00 +25°C° 0 mm 1 mps 736 mmHg 25%
    09:00 +27°C° 0 mm 2 mps 736 mmHg 23%
    10:00 +30°C° 0 mm 2 mps 736 mmHg 20%
    11:00 +32°C° 0 mm 2 mps 736 mmHg 17%
    12:00 +35°C° 0 mm 2 mps 736 mmHg 15%
    13:00 +36°C° 0 mm 2 mps 735 mmHg 14%
    14:00 +37°C° 0 mm 1 mps 735 mmHg 12%
    15:00 +37°C° 0 mm 1 mps 735 mmHg 12%
    16:00 +37°C° 0 mm 1 mps 735 mmHg 12%
    17:00 +37°C° 0 mm 1 mps 734 mmHg 11%
    18:00 +34°C° 0 mm 1 mps 735 mmHg 14%
    19:00 +30°C° 0 mm 2 mps 735 mmHg 17%
    20:00 +27°C° 0 mm 2 mps 735 mmHg 20%
    21:00 +26°C° 0 mm 1 mps 735 mmHg 22%
    22:00 +25°C° 0 mm 1 mps 734 mmHg 23%
    23:00 +24°C° 0 mm 1 mps 734 mmHg 25%

    Day after tomorrow, 21 September, Saturday

    Time Temperature Precipitation Wind Pressure Humidity
    00:00 +24°C° 0 mm 1 mps 734 mmHg 26%
    01:00 +23°C° 0 mm 1 mps 734 mmHg 27%
    02:00 +22°C° 0 mm 1 mps 734 mmHg 28%
    03:00 +21°C° 0 mm 1 mps 734 mmHg 30%
    04:00 +21°C° 0 mm 1 mps 734 mmHg 31%
    05:00 +20°C° 0 mm 1 mps 733 mmHg 33%
    06:00 +22°C° 0 mm 1 mps 734 mmHg 29%
    07:00 +25°C° 0 mm 1 mps 734 mmHg 25%
    08:00 +27°C° 0 mm 2 mps 734 mmHg 22%
    09:00 +30°C° 0 mm 2 mps 734 mmHg 19%
    10:00 +32°C° 0 mm 2 mps 734 mmHg 16%
    11:00 +36°C° 0 mm 3 mps 733 mmHg 14%
    12:00 +37°C° 0 mm 3 mps 733 mmHg 12%
    13:00 +39°C° 0 mm 3 mps 732 mmHg 11%
    14:00 +40°C° 0 mm 3 mps 732 mmHg 9%
    15:00 +40°C° 0 mm 2 mps 732 mmHg 9%
    16:00 +40°C° 0 mm 2 mps 732 mmHg 9%
    17:00 +40°C° 0 mm 2 mps 731 mmHg 10%
    18:00 +36°C° 0 mm 2 mps 731 mmHg 12%
    19:00 +32°C° 0 mm 2 mps 731 mmHg 14%
    20:00 +29°C° 0 mm 2 mps 731 mmHg 17%
    21:00 +28°C° 0 mm 1 mps 731 mmHg 18%
    22:00 +28°C° 0 mm 1 mps 731 mmHg 19%
    23:00 +27°C° 0 mm 1 mps 731 mmHg 19%

    22 September, Sunday

    Time Temperature Precipitation Wind Pressure Humidity
    00:00 +27°C° 0 mm 1 mps 731 mmHg 20%
    01:00 +26°C° 0 mm 2 mps 731 mmHg 20%
    02:00 +26°C° 0 mm 2 mps 731 mmHg 20%
    03:00 +26°C° 0 mm 2 mps 731 mmHg 20%
    04:00 +25°C° 0 mm 2 mps 730 mmHg 21%
    05:00 +25°C° 0 mm 3 mps 730 mmHg 22%
    06:00 +27°C° 0 mm 3 mps 731 mmHg 20%
    07:00 +29°C° 0 mm 3 mps 731 mmHg 18%
    08:00 +30°C° 0 mm 3 mps 732 mmHg 16%
    09:00 +34°C° 0 mm 3 mps 732 mmHg 14%
    10:00 +37°C° 0 mm 3 mps 732 mmHg 12%
    11:00 +39°C° 0 mm 3 mps 732 mmHg 10%
    12:00 +42°C° 0 mm 3 mps 732 mmHg 8%
    13:00 +43°C° 0 mm 4 mps 732 mmHg 7%
    14:00 +44°C° 0 mm 4 mps 732 mmHg 5%
    15:00 +45°C° 0 mm 5 mps 732 mmHg 6%
    16:00 +44°C° 0 mm 6 mps 733 mmHg 6%
    17:00 +44°C° 0 mm 7 mps 733 mmHg 6%
    18:00 +38°C° 0 mm 7 mps 735 mmHg 17%
    19:00 +32°C° 0 mm 6 mps 736 mmHg 29%
    20:00 +26°C° 0 mm 6 mps 737 mmHg 41%
    21:00 +25°C° 0 mm 5 mps 737 mmHg 43%
    22:00 +22°C° 0 mm 5 mps 738 mmHg 46%
    23:00 +21°C° 0 mm 4 mps 738 mmHg 49%

    23 September, Monday

    Time Temperature Precipitation Wind Pressure Humidity
    00:00 +20°C° 0 mm 4 mps 738 mmHg 48%
    01:00 +19°C° 0 mm 3 mps 738 mmHg 47%
    02:00 +19°C° 0 mm 3 mps 738 mmHg 47%
    03:00 +18°C° 0 mm 2 mps 738 mmHg 47%
    04:00 +17°C° 0 mm 2 mps 738 mmHg 47%
    05:00 +16°C° 0 mm 2 mps 738 mmHg 47%
    06:00 +17°C° 0 mm 2 mps 738 mmHg 44%
    07:00 +18°C° 0 mm 2 mps 738 mmHg 41%
    08:00 +20°C° 0 mm 1 mps 739 mmHg 38%
    09:00 +22°C° 0 mm 1 mps 738 mmHg 35%
    10:00 +24°C° 0 mm 1 mps 738 mmHg 31%
    11:00 +26°C° 0 mm 1 mps 738 mmHg 27%
    12:00 +27°C° 0 mm 2 mps 737 mmHg 25%
    13:00 +29°C° 0 mm 2 mps 737 mmHg 24%
    14:00 +31°C° 0 mm 2 mps 736 mmHg 22%
    15:00 +31°C° 0 mm 2 mps 736 mmHg 21%
    16:00 +31°C° 0 mm 2 mps 736 mmHg 20%
    17:00 +31°C° 0 mm 3 mps 736 mmHg 20%
    18:00 +29°C° 0 mm 3 mps 736 mmHg 23%
    19:00 +26°C° 0 mm 2 mps 736 mmHg 27%
    20:00 +23°C° 0 mm 2 mps 737 mmHg 30%
    21:00 +23°C° 0 mm 2 mps 737 mmHg 31%
    22:00 +21°C° 0 mm 2 mps 737 mmHg 32%
    23:00 +20°C° 0 mm 2 mps 737 mmHg 33%

    24 September, Tuesday

    Time Temperature Precipitation Wind Pressure Humidity
    00:00 +19°C° 0 mm 2 mps 737 mmHg 35%
    01:00 +19°C° 0 mm 2 mps 737 mmHg 37%
    02:00 +18°C° 0 mm 2 mps 737 mmHg 38%
    03:00 +17°C° 0 mm 2 mps 737 mmHg 39%
    04:00 +16°C° 0 mm 2 mps 738 mmHg 40%
    05:00 +16°C° 0 mm 2 mps 738 mmHg 41%
    06:00 +17°C° 0 mm 2 mps 738 mmHg 37%
    07:00 +18°C° 0 mm 2 mps 738 mmHg 33%
    08:00 +19°C° 0 mm 3 mps 739 mmHg 29%
    09:00 +21°C° 0 mm 3 mps 739 mmHg 25%
    10:00 +24°C° 0 mm 3 mps 739 mmHg 20%
    11:00 +26°C° 0 mm 4 mps 739 mmHg 15%
    12:00 +28°C° 0 mm 4 mps 739 mmHg 15%
    13:00 +29°C° 0 mm 5 mps 739 mmHg 14%
    14:00 +30°C° 0 mm 5 mps 739 mmHg 13%
    15:00 +30°C° 0 mm 5 mps 739 mmHg 14%
    16:00 +30°C° 0 mm 5 mps 739 mmHg 14%
    17:00 +30°C° 0 mm 5 mps 739 mmHg 15%
    18:00 +27°C° 0 mm 4 mps 739 mmHg 18%
    19:00 +25°C° 0 mm 3 mps 740 mmHg 21%
    20:00 +21°C° 0 mm 3 mps 740 mmHg 25%
    21:00 +20°C° 0 mm 3 mps 740 mmHg 26%
    22:00 +20°C° 0 mm 2 mps 740 mmHg 27%
    23:00 +19°C° 0 mm 2 mps 740 mmHg 28%
    Show more